Temp
45 42 42 50 55 62 60 56 55 59 59 59 60 63 68 65 65 68 70 70 69 69 75 76 74 74 73 74 74 75 75 75 74 72 71 70 68 71 73 75 74 75 74 69
42 39 50 58 58 56 57 53 55 55 55 56 58 59 67 64 65 68 73 72 71 72 72 70 71 71 71 73 74 75 75 75 74 74 73 74 73 74 75 76 75 75 72 70
41 51 52 51 52 52 54 55 54 55 53 55 54 56 60 65 65 65 65 70 73 74 75 75 71 72 73 73 73 73 74 74 74 74 74 73 74 72 71 72 72 73 73 71
46 50 51 50 52 57 49 56 56 51 53 50 54 49 59 65 63 63 67 70 71 73 73 75 74 73 73 73 74 73 73 74 74 74 72 70 69 68 72 73 73 73 73 72
42 46 47 47 52 56 52 55 55 51 53 50 49 49 58 56 59 64 69 70 72 73 73 74 73 73 73 70 69 71 73 72 73 73 72 70 69 73 75 74 71 70 71 71
48 54 54 55 50 57 51 53 51 51 51 42 51 49 53 56 60 67 72 73 74 74 70 67 66 67 68 65 63 65 68 70 71 71 70 70 69 70 69 69 67 68 69 70
42 46 51 53 49 51 54 53 42 40 39 39 42 42 54 60 62 66 69 70 68 67 65 64 61 60 61 60 61 62 64 66 67 66 68 69 69 70 68 68 67 68 66 65
39 37 47 52 54 49 51 54 43 32 33 41 38 40 54 61 62 63 64 65 63 61 60 60 59 59 58 58 59 60 60 62 63 63 64 64 64 64 65 66 65 64 64 65
42 42 48 50 52 56 50 46 53 37 26 37 46 48 54 58 57 57 58 60 62 60 58 58 57 59 59 58 59 60 59 58 59 60 60 58 57 58 58 59 59 62 65 67
48 38 44 47 54 52 51 54 43 43 31 31 40 42 52 55 57 56 57 58 60 58 56 57 57 57 57 57 57 58 59 59 57 58 59 59 59 59 58 59 60 62 63 62
52 44 39 45 46 48 47 46 46 50 43 37 36 46 56 54 55 56 59 59 60 57 57 57 56 56 56 56 57 56 56 56 55 55 57 58 58 58 59 59 59 59 57 57
50 41 37 43 47 49 56 51 52 44 34 38 38 48 51 53 53 54 55 57 59 58 58 58 56 55 54 55 55 56 55 55 55 55 56 57 56 56 55 54 53 53 53 51
46 39 31 36 44 45 46 47 53 47 43 35 37 47 51 51 52 52 53 54 54 54 55 54 54 54 55 55 54 54 54 53 52 53 54 54 54 53 51 50 49 48 47 46
48 39 41 37 43 46 41 45 49 49 40 39 44 50 52 53 53 51 52 53 53 54 54 55 54 55 54 54 54 54 52 52 51 51 52 51 51 51 51 50 49 47 46 45
48 35 39 39 44 48 45 44 45 45 51 44 50 47 55 57 56 56 57 56 53 53 52 54 54 54 53 52 52 51 52 50 50 50 49 48 46 47 46 45 44 42 42 41
45 34 37 33 39 42 40 45 46 49 51 52 49 49 59 59 57 54 54 53 51 52 53 51 51 51 51 50 51 49 50 48 48 48 46 44 43 42 41 40 40 40 40 40
44 35 35 31 36 38 34 39 45 49 53 53 47 54 55 52 54 55 55 53 53 54 54 53 53 53 52 51 50 49 48 45 44 43 42 41 40 38 38 39 39 38 39 39
39 37 34 26 31 27 42 53 51 50 52 55 54 55 56 57 58 60 58 55 53 54 53 53 52 52 49 48 47 47 44 42 41 40 38 37 37 36 37 38 37 37 38 37
50 38 28 28 31 36 42 43 46 45 46 51 52 54 55 51 52 55 52 55 56 54 52 51 49 47 46 45 45 43 40 39 38 37 36 35 36 33 34 33 34 34 34 33
40 46 35 24 32 29 42 43 49 52 41 53 53 53 50 49 48 59 52 53 49 48 45 44 44 42 42 41 40 38 37 37 37 36 35 35 34 33 32 33 31 31 32 32
33 35 34 30 35 36 43 43 54 38 43 47 50 52 51 49 59 60 46 43 45 44 42 42 41 40 40 37 37 36 35 35 36 34 32 31 31 31 32 31 30 30 31 31
36 34 33 29 32 31 40 41 44 48 42 41 46 47 50 54 45 45 45 41 39 38 38 38 35 34 33 34 36 34 35 34 31 30 30 29 29 30 29 28 28 29 29 28
35 44 37 39 41 42 42 43 45 46 46 44 46 45 51 47 43 42 40 39 39 37 34 33 33 31 30 31 33 33 32 29 28 28 27 27 27 28 27 28 27 28 28 29
36 39 41 39 41 43 44 44 45 46 47 43 45 43 46 44 41 37 37 35 34 32 31 29 30 30 28 28 28 31 28 27 27 27 25 25 25 25 26 28 29 30 28 29
41 38 34 35 35 41 42 44 46 43 39 38 38 40 42 39 36 37 34 33 33 32 30 30 31 30 29 27 27 26 26 26 26 26 24 25 26 25 26 28 29 29 31 32
38 37 41 43 42 46 47 47 41 40 39 39 38 36 37 39 37 36 33 33 32 30 28 28 28 28 28 27 26 24 24 25 25 25 25 27 27 27 27 28 28 29 29 29
MSLP
1019.12 1019.09 1017.36 1016.34 1015.69 1014.36 1014.44 1014.68 1014.95 1015.61 1016.14 1016.15 1015.49 1014.85 1014.49 1015.12 1015.18 1014.94 1014.90 1015.20 1015.57 1015.84 1016.10 1016.78 1017.34 1018.02 1018.40 1018.70 1019.02 1019.38 1019.80 1020.27 1020.75 1021.19 1021.57 1021.98 1022.21 1022.43 1022.50 1022.59 1022.83 1022.91 1023.02 1023.49
1019.13 1017.62 1016.88 1016.02 1015.69 1015.14 1014.49 1014.55 1015.13 1016.08 1016.46 1016.36 1015.55 1014.65 1014.34 1014.74 1014.48 1014.26 1013.99 1014.27 1014.61 1015.07 1015.50 1016.23 1016.75 1017.34 1017.72 1017.90 1018.08 1018.45 1018.82 1019.28 1019.83 1020.07 1020.65 1020.86 1021.14 1021.31 1021.43 1021.65 1021.92 1022.40 1022.74 1022.67
1017.33 1016.09 1016.16 1015.70 1015.48 1015.20 1014.65 1014.52 1015.11 1015.63 1016.36 1016.54 1016.09 1014.64 1014.10 1013.93 1014.14 1014.20 1014.06 1013.82 1013.86 1013.98 1014.31 1014.92 1015.87 1016.18 1016.78 1017.22 1017.38 1017.75 1018.05 1018.41 1018.89 1019.17 1019.73 1020.16 1020.42 1020.84 1021.19 1021.22 1021.34 1021.45 1021.92 1022.02
1017.27 1016.28 1015.51 1015.35 1015.18 1014.89 1014.80 1015.27 1015.42 1016.01 1016.24 1016.16 1016.23 1013.82 1012.76 1012.80 1013.17 1013.45 1013.08 1012.97 1012.79 1013.09 1013.73 1014.24 1014.86 1015.33 1015.70 1016.15 1016.95 1017.41 1017.72 1017.95 1018.28 1018.60 1018.90 1019.35 1019.57 1019.88 1020.10 1020.43 1020.72 1020.71 1021.15 1021.33
1016.52 1015.66 1014.90 1014.77 1014.71 1015.21 1015.32 1015.66 1016.02 1016.73 1016.69 1016.49 1016.18 1015.15 1012.54 1012.78 1012.17 1011.75 1011.54 1011.79 1012.09 1012.37 1012.85 1013.44 1014.34 1014.94 1015.40 1016.19 1016.68 1016.93 1017.29 1017.62 1018.03 1018.52 1018.52 1018.82 1019.01 1019.15 1019.41 1019.72 1020.13 1020.58 1020.83 1020.96
1015.89 1015.27 1014.77 1014.33 1015.41 1015.14 1016.02 1016.12 1016.97 1017.34 1017.19 1016.31 1015.43 1015.02 1012.43 1012.01 1011.02 1010.59 1010.48 1010.76 1011.33 1012.03 1012.98 1013.78 1014.57 1015.08 1015.41 1015.88 1016.43 1017.01 1017.10 1017.36 1017.90 1018.14 1018.54 1018.56 1018.71 1019.17 1019.41 1019.79 1020.06 1020.07 1020.38 1020.61
1016.68 1015.57 1015.15 1014.91 1015.55 1016.04 1015.46 1015.52 1016.77 1017.27 1017.24 1016.03 1015.99 1015.55 1012.16 1011.31 1010.60 1010.47 1010.49 1011.07 1011.87 1012.53 1013.25 1013.92 1014.62 1015.28 1015.66 1016.18 1016.47 1016.86 1017.27 1017.34 1017.78 1018.28 1018.38 1018.68 1018.89 1019.10 1019.21 1019.46 1019.77 1019.86 1019.77 1020.30
1014.48 1015.22 1014.57 1014.36 1013.85 1014.33 1014.67 1014.41 1014.87 1015.71 1016.62 1016.26 1016.61 1014.34 1011.51 1010.69 1010.90 1011.04 1011.27 1011.62 1012.37 1013.08 1013.81 1014.49 1015.09 1015.49 1016.04 1016.55 1016.52 1016.48 1017.07 1017.49 1017.79 1018.11 1018.47 1018.89 1019.20 1019.27 1019.42 1019.48 1019.53 1019.74 1019.74 1019.85
1012.02 1013.72 1014.48 1014.59 1014.12 1013.82 1014.78 1014.48 1015.01 1015.83 1017.74 1016.85 1014.82 1013.59 1011.86 1010.46 1010.74 1011.16 1011.65 1012.25 1012.77 1013.53 1014.22 1014.64 1015.34 1015.73 1016.24 1016.41 1016.79 1017.25 1017.31 1017.37 1017.74 1018.18 1018.66 1019.05 1019.40 1019.65 1019.79 1019.80 1019.67 1019.48 1019.48 1019.47
1009.94 1013.51 1014.88 1014.95 1014.45 1014.34 1013.47 1014.14 1015.23 1015.24 1015.71 1015.79 1014.29 1013.28 1011.24 1010.62 1011.12 1011.37 1011.65 1012.20 1013.04 1013.95 1014.56 1015.15 1015.74 1016.19 1016.56 1016.96 1017.26 1017.42 1017.54 1017.63 1017.75 1018.40 1018.78 1019.12 1019.36 1019.63 1019.76 1019.78 1019.58 1019.56 1019.59 1019.60
1009.69 1011.74 1015.02 1014.79 1013.48 1012.46 1013.49 1013.37 1013.62 1013.75 1014.33 1014.59 1013.86 1012.06 1011.25 1011.28 1011.59 1011.89 1012.05 1012.49 1013.07 1013.85 1014.55 1015.18 1015.96 1016.77 1017.21 1017.57 1017.71 1017.68 1017.85 1018.02 1018.19 1018.74 1019.06 1019.15 1019.23 1019.29 1019.47 1019.56 1019.67 1019.76 1019.85 1019.95
1009.02 1011.05 1013.19 1013.06 1013.15 1012.99 1012.01 1012.09 1012.54 1012.65 1014.04 1014.58 1014.11 1011.96 1011.30 1011.79 1012.08 1012.34 1012.57 1012.86 1013.45 1014.23 1015.02 1015.54 1016.22 1017.00 1017.42 1017.70 1017.87 1018.06 1018.32 1018.49 1018.72 1019.09 1019.22 1019.24 1019.27 1019.46 1019.78 1019.96 1020.02 1020.14 1020.30 1020.52
1008.41 1010.33 1012.46 1013.89 1013.67 1013.25 1012.05 1011.82 1011.67 1012.42 1013.25 1013.27 1013.51 1011.92 1011.55 1011.83 1012.22 1012.66 1012.89 1013.14 1013.76 1014.52 1015.32 1015.81 1016.42 1016.93 1017.28 1017.55 1017.96 1018.35 1018.74 1018.71 1019.04 1019.34 1019.34 1019.48 1019.71 1019.95 1020.35 1020.57 1020.67 1020.62 1020.80 1021.02
1007.65 1009.14 1009.68 1009.96 1008.75 1011.13 1012.03 1011.74 1011.98 1012.43 1012.42 1012.02 1011.19 1011.28 1011.25 1011.52 1012.15 1012.70 1012.95 1013.48 1014.09 1014.51 1015.16 1015.88 1016.29 1016.66 1017.11 1017.59 1018.05 1018.44 1018.86 1019.22 1019.42 1019.50 1019.64 1019.73 1020.02 1020.33 1020.74 1021.19 1021.32 1021.38 1021.49 1021.69
1007.57 1009.26 1010.32 1011.00 1010.56 1010.62 1010.97 1011.28 1011.44 1011.39 1010.71 1010.84 1009.38 1010.24 1010.33 1010.85 1011.55 1012.14 1012.46 1013.25 1013.92 1014.61 1015.12 1015.56 1015.91 1016.53 1016.94 1017.43 1017.82 1018.15 1018.54 1019.07 1019.53 1019.87 1020.14 1020.43 1020.78 1020.88 1021.18 1021.54 1021.94 1022.15 1022.13 1022.50
1007.94 1009.95 1011.06 1012.18 1011.44 1011.43 1011.39 1011.34 1010.90 1009.75 1010.03 1009.41 1009.76 1009.66 1010.04 1010.67 1011.34 1012.11 1012.39 1013.18 1013.74 1014.34 1014.78 1015.23 1015.71 1016.42 1016.61 1017.04 1017.52 1018.14 1018.63 1019.25 1019.70 1020.01 1020.41 1021.01 1021.17 1021.54 1021.86 1022.04 1022.43 1022.67 1022.97 1023.09
1007.73 1009.80 1011.04 1013.05 1012.75 1012.10 1012.16 1010.46 1009.93 1009.40 1008.97 1008.00 1008.76 1008.55 1009.73 1010.44 1011.03 1011.47 1012.02 1012.81 1013.44 1014.00 1014.64 1015.04 1015.50 1016.01 1016.48 1017.05 1017.58 1018.02 1018.54 1019.22 1019.87 1020.30 1020.62 1021.36 1021.67 1021.80 1022.19 1022.56 1022.73 1023.09 1023.33 1023.49
1008.47 1010.09 1011.05 1013.25 1013.42 1012.74 1010.24 1009.56 1008.86 1008.49 1007.87 1007.95 1008.15 1008.64 1009.15 1009.67 1009.88 1010.28 1011.26 1012.05 1012.94 1013.63 1014.24 1014.81 1015.36 1016.02 1016.46 1017.02 1017.72 1018.28 1018.80 1019.54 1020.21 1020.71 1020.99 1021.60 1022.15 1022.46 1022.54 1022.77 1023.09 1023.48 1023.64 1023.84
1008.04 1009.39 1012.07 1012.96 1012.95 1011.22 1009.61 1008.93 1008.30 1008.50 1008.02 1008.20 1007.83 1008.59 1009.07 1009.86 1010.56 1010.71 1011.44 1011.79 1012.14 1012.65 1013.73 1014.76 1015.78 1016.38 1016.88 1017.44 1018.33 1018.44 1019.13 1019.78 1020.49 1020.86 1021.42 1022.23 1022.39 1022.53 1022.88 1023.10 1023.43 1023.92 1024.23 1024.57
1008.73 1008.78 1009.92 1011.94 1011.17 1009.63 1006.74 1006.85 1007.33 1008.45 1007.45 1006.37 1007.44 1008.51 1009.46 1010.25 1010.53 1009.35 1010.53 1011.24 1012.46 1013.39 1014.51 1015.46 1016.30 1016.90 1017.17 1017.65 1018.15 1018.88 1019.72 1020.19 1020.65 1021.02 1021.41 1022.18 1022.66 1022.91 1023.26 1023.49 1023.88 1024.38 1024.73 1024.89
1009.44 1009.56 1009.39 1009.54 1008.98 1007.20 1006.71 1006.53 1006.86 1008.14 1005.35 1005.89 1007.17 1008.23 1008.95 1009.32 1008.06 1008.85 1010.23 1012.00 1013.32 1014.36 1015.38 1016.15 1016.86 1017.57 1018.22 1018.61 1018.29 1018.84 1019.43 1020.14 1020.43 1020.98 1021.85 1022.48 1022.74 1022.94 1023.34 1023.86 1024.14 1024.51 1024.93 1025.19
1006.75 1007.92 1008.49 1009.37 1008.78 1007.37 1006.54 1007.40 1006.40 1006.08 1006.46 1006.81 1006.92 1007.64 1008.36 1008.49 1009.63 1010.73 1011.63 1012.79 1014.05 1015.34 1016.48 1017.27 1017.81 1018.44 1018.83 1018.74 1018.77 1019.70 1019.91 1020.25 1020.43 1021.30 1022.21 1022.78 1022.99 1023.13 1023.48 1023.78 1024.33 1024.76 1025.18 1025.41
1006.30 1004.40 1005.38 1006.79 1005.02 1005.62 1006.05 1005.65 1005.90 1006.19 1006.41 1007.38 1007.45 1007.75 1008.24 1009.38 1010.62 1011.82 1012.82 1013.84 1014.98 1015.78 1016.76 1017.42 1018.15 1018.95 1019.48 1019.00 1019.31 1019.95 1020.46 1020.71 1021.08 1021.61 1022.47 1023.25 1023.61 1023.46 1023.54 1023.84 1024.43 1024.94 1025.24 1025.28
1005.61 1005.18 1005.29 1006.27 1005.56 1005.68 1006.30 1006.73 1006.74 1006.46 1006.92 1007.54 1007.86 1008.44 1009.09 1009.96 1011.78 1012.94 1013.86 1014.51 1015.45 1016.80 1017.59 1018.33 1018.80 1019.09 1019.35 1019.54 1019.72 1020.26 1020.79 1021.23 1021.43 1022.11 1022.85 1023.64 1023.93 1023.83 1023.89 1024.03 1024.26 1024.42 1024.67 1024.74
1004.11 1005.03 1004.98 1005.63 1006.09 1006.20 1006.52 1006.51 1006.22 1006.89 1007.80 1008.49 1009.02 1009.54 1009.92 1010.61 1012.82 1013.56 1014.50 1015.01 1016.31 1017.78 1018.50 1018.78 1018.82 1018.83 1019.46 1019.95 1020.47 1021.13 1021.34 1021.54 1021.86 1022.66 1023.24 1023.59 1023.73 1023.82 1023.87 1023.94 1023.94 1024.01 1024.06 1024.08
1003.75 1003.99 1004.13 1003.52 1004.36 1004.49 1005.08 1005.92 1006.94 1007.99 1008.67 1009.42 1009.83 1010.83 1011.08 1011.73 1013.21 1014.11 1015.01 1015.98 1017.32 1018.41 1019.08 1019.27 1019.25 1019.26 1019.95 1020.72 1021.28 1021.36 1021.45 1021.80 1022.22 1022.79 1023.12 1023.24 1023.44 1023.55 1023.55 1023.63 1023.79 1024.00 1024.14 1024.38
Wind_Speed
6 5 16 22 13 11 16 12 11 10 5 8 14 13 13 5 7 11 12 11 12 15 13 12 14 16 16 16 16 16 15 15 12 10 9 8 9 9 9 10 12 12 11 11
7 13 14 18 19 10 13 13 11 3 4 6 6 15 14 9 7 12 13 12 15 13 14 13 14 15 17 17 17 17 17 16 14 11 10 8 10 10 10 9 11 12 12 11
14 8 14 9 11 15 12 17 12 5 5 2 1 13 14 9 12 9 10 10 11 16 17 15 15 17 16 17 18 17 18 17 17 17 10 9 7 7 7 9 9 12 13 12
7 3 17 13 18 17 11 6 8 9 9 8 5 7 15 21 13 9 15 15 16 15 14 12 15 17 18 17 15 16 17 17 16 17 14 15 12 12 11 10 10 10 13 12
11 12 16 18 22 15 5 10 8 3 7 3 6 7 9 2 13 20 20 16 17 17 15 15 14 11 12 11 13 13 14 14 15 15 16 12 13 10 9 8 10 10 9 11
2 4 12 8 4 11 15 12 7 3 2 9 14 10 8 9 18 20 18 20 21 16 10 7 5 7 9 7 8 9 12 13 13 14 15 15 14 13 9 9 8 7 7 7
5 4 4 5 11 7 7 17 6 6 7 7 2 7 11 10 12 14 11 10 9 6 6 6 8 7 7 8 7 5 7 10 10 11 12 14 14 14 14 11 8 9 6 5
15 9 12 6 13 11 16 18 6 8 6 4 2 9 5 12 8 7 7 3 5 4 4 5 5 6 7 7 7 9 10 9 8 8 7 4 3 3 5 6 6 5 5 6
17 9 3 5 6 16 13 13 5 8 2 2 5 4 12 7 7 7 6 8 8 5 5 7 8 8 9 8 7 7 9 9 7 6 4 4 3 4 4 5 3 3 5 6
12 8 5 3 5 2 11 12 7 2 6 5 4 5 8 4 4 1 5 11 9 6 7 7 7 7 6 7 7 7 7 8 8 6 5 4 4 3 3 4 5 7 4 2
16 7 7 6 11 17 8 12 2 5 3 4 3 4 4 3 3 4 4 7 11 11 10 9 7 6 5 5 5 6 6 7 7 6 6 6 5 4 4 3 3 3 1 2
7 8 9 14 4 4 12 13 15 8 6 0 2 3 3 5 7 7 8 6 8 9 9 9 8 8 6 6 6 6 6 6 5 6 6 5 4 4 4 4 4 3 4 4
11 4 9 6 3 3 15 9 18 4 2 8 5 3 2 3 4 6 7 5 7 8 9 7 6 7 7 6 5 5 5 6 6 6 6 5 5 5 4 4 4 4 5 5
7 4 8 15 19 10 11 12 15 12 6 7 15 5 3 3 4 4 5 8 9 9 9 8 8 8 7 7 7 6 5 4 4 4 5 5 5 5 5 4 5 5 5 6
3 6 4 5 4 12 18 19 19 21 17 14 13 14 8 10 10 9 8 10 11 11 10 10 10 9 9 8 8 6 6 6 5 5 4 4 4 5 5 5 4 5 6 6
1 4 5 4 5 4 11 16 20 26 21 22 7 10 4 4 6 8 10 10 10 11 11 9 8 8 8 9 8 8 7 7 6 6 5 5 5 4 4 5 5 6 6 7
14 7 4 5 2 7 1 20 20 18 22 26 21 14 10 8 10 12 13 12 11 10 10 9 10 7 6 6 6 8 9 8 7 6 6 5 5 5 5 5 6 6 6 6
17 8 4 5 2 5 9 16 21 27 25 23 19 9 14 10 15 15 8 14 12 11 11 10 7 5 4 2 3 6 8 7 7 6 6 5 5 5 5 6 6 6 6 6
14 8 7 7 15 5 14 11 16 15 12 13 25 16 11 3 2 8 9 9 16 15 10 8 6 4 3 3 5 7 7 7 7 7 6 5 5 6 6 5 6 5 5 5
2 6 4 7 12 18 6 14 12 8 16 19 19 16 12 9 11 13 15 14 7 9 8 9 7 6 6 7 7 8 7 7 7 6 6 6 4 5 5 6 6 4 4 5
8 9 16 3 8 8 4 11 19 14 14 10 15 15 17 13 20 9 12 9 8 10 10 9 8 6 4 5 7 8 8 7 5 5 5 5 4 5 5 6 4 6 6 6
14 13 10 2 6 18 5 8 19 8 3 5 5 10 17 14 4 5 8 13 13 13 10 6 6 5 3 5 6 6 6 5 6 5 5 5 5 4 5 7 5 6 6 7
9 14 10 14 11 1 8 2 2 2 7 6 7 8 12 11 8 12 13 14 13 12 9 5 7 7 4 4 3 5 4 5 6 6 5 4 4 4 5 7 7 6 7 6
4 2 7 5 7 7 11 3 4 4 3 4 3 6 10 10 11 9 10 9 9 7 7 5 7 6 5 3 4 3 5 4 6 5 5 4 5 5 5 5 6 6 7 7
4 12 8 2 1 3 6 10 9 7 5 6 5 4 10 15 11 12 9 9 7 6 5 5 5 5 5 4 4 3 5 6 6 5 5 6 5 6 6 6 6 7 7 7
5 8 10 8 13 5 10 11 7 8 7 10 12 8 6 11 14 11 9 6 6 6 4 4 4 5 4 4 4 3 3 5 6 6 5 5 4 4 4 4 5 9 9 11
Wind_Direction
149 157 196 199 200 188 174 183 186 198 161 198 220 229 230 185 220 210 203 208 217 225 227 216 206 208 207 209 207 209 206 205 198 200 201 210 212 218 221 222 221 220 216 202
148 214 196 176 195 185 172 173 188 130 137 207 235 243 244 214 230 222 223 205 218 222 222 211 209 207 210 212 208 210 211 206 203 200 203 209 206 219 221 220 220 224 219 200
168 197 160 159 163 167 180 191 183 203 138 161 247 257 235 221 231 230 240 242 233 226 227 215 206 210 212 216 210 212 212 208 207 207 203 210 219 219 217 222 222 219 220 216
238 149 165 176 194 189 178 197 158 140 175 218 202 256 223 225 215 218 233 226 235 230 230 237 212 211 210 215 214 214 216 213 214 206 202 205 206 214 218 220 224 223 219 221
211 182 164 180 192 191 165 145 144 151 214 263 179 247 233 200 224 225 225 227 232 234 226 224 221 229 218 211 213 216 220 218 216 215 211 208 218 228 231 225 226 223 226 224
336 266 180 167 116 180 138 113 81 93 173 249 233 234 220 206 222 233 223 222 229 235 242 228 212 209 217 190 197 213 221 223 222 216 219 218 222 228 229 228 230 226 228 231
235 182 141 149 135 139 173 160 154 194 207 241 113 226 254 239 233 237 246 228 219 210 225 208 202 193 192 196 182 184 209 208 206 219 220 226 234 237 238 236 230 238 224 222
179 191 183 172 194 172 179 184 178 178 193 179 113 233 223 247 281 229 218 167 163 175 177 180 176 167 165 170 163 159 172 174 181 195 212 225 265 247 241 238 228 226 226 233
181 189 168 220 154 161 178 208 129 107 68 232 200 253 269 241 238 225 217 221 217 189 177 165 160 157 152 141 140 150 147 140 146 155 158 155 178 218 245 263 290 246 226 248
166 133 219 164 140 131 196 142 180 194 158 228 208 262 237 270 209 202 222 215 210 184 166 163 159 148 137 138 135 137 139 137 128 135 142 156 164 184 225 256 245 239 234 268
158 131 167 173 211 178 156 189 175 141 167 205 202 233 211 227 263 260 256 212 197 181 174 161 151 145 135 135 141 126 131 135 128 143 152 159 157 158 158 173 185 206 132 257
175 115 154 190 72 301 206 196 192 191 178 183 11 262 147 238 256 243 244 216 182 170 167 157 155 160 160 154 147 138 135 134 136 149 161 150 122 108 110 89 73 80 109 86
169 160 114 144 272 194 212 198 199 127 105 189 170 203 161 212 231 236 236 188 167 162 165 158 156 169 171 163 157 158 160 143 142 154 158 136 125 122 114 108 102 88 89 80
110 125 175 188 221 127 193 193 193 195 209 147 226 213 238 199 205 190 166 169 169 173 167 172 176 180 179 178 178 172 158 147 140 146 154 146 134 129 121 112 103 102 103 99
116 107 93 16 127 165 182 180 178 198 206 204 217 211 207 199 192 189 175 171 171 174 175 182 179 186 184 185 182 174 168 161 160 155 147 128 119 114 111 108 95 86 81 88
3 124 117 34 44 115 174 183 186 208 207 238 237 239 194 176 159 187 189 182 180 181 187 185 187 188 188 188 190 179 175 173 172 164 154 141 136 120 113 108 111 111 107 104
180 130 128 126 48 89 67 204 198 210 208 220 221 211 176 189 199 206 200 193 193 186 189 189 198 196 187 188 190 188 171 156 165 164 154 160 149 135 133 132 129 125 122 120
160 132 74 105 60 176 228 194 209 213 215 217 233 178 183 196 207 210 191 187 193 191 194 196 187 196 196 174 197 163 151 155 162 163 158 155 157 149 144 143 136 126 128 135
178 133 126 156 196 269 227 211 194 189 232 212 225 211 197 160 86 234 189 192 196 194 182 165 158 161 159 189 193 148 146 152 158 161 161 174 170 154 156 153 148 134 140 140
15 178 118 156 190 220 288 177 150 109 259 204 210 197 180 152 218 230 193 198 170 134 139 154 156 154 165 163 150 138 153 160 173 166 165 168 165 157 161 150 144 138 152 145
161 173 206 201 205 269 226 155 144 164 265 185 182 186 177 194 216 212 124 130 137 142 146 141 145 155 155 155 140 142 155 181 155 137 141 155 163 159 156 148 151 152 151 143
168 164 195 148 208 249 150 138 175 180 158 155 149 176 194 207 83 126 137 135 138 134 137 137 132 139 155 149 131 146 172 141 130 135 146 168 171 162 159 152 147 161 162 163
193 198 168 195 202 204 194 105 129 194 147 192 171 178 185 172 175 156 151 145 146 148 146 135 146 146 151 103 118 148 157 148 137 139 157 168 173 168 163 163 168 172 182 184
229 147 187 130 194 172 188 215 199 177 179 132 112 132 153 150 146 137 141 132 130 140 148 149 151 147 127 122 114 100 141 133 132 149 165 177 191 185 180 185 184 189 192 196
175 145 156 185 33 119 213 222 191 149 119 109 86 118 145 129 141 141 138 133 132 140 142 163 149 127 122 129 125 130 146 144 152 167 179 192 201 197 192 208 202 209 214 210
194 157 186 212 173 161 198 187 142 147 157 145 134 120 98 140 141 136 122 106 126 141 151 136 110 107 118 131 139 139 149 169 166 185 194 202 200 201 210 213 227 233 243 230